| time (UTC) | temp F | wind direction | speed knots | gust knots | rain 1hr in | rain 24hr in | rain mn in | humidity % | barometer mb |
| 20260507010227 | 56 | 360 | 0.9 | 3.5 | 0.00 | 0.00 | 0.00 | 65 | 1017.0 |
| 20260507004727 | 56 | 0 | 2.6 | 0.0 | 0.00 | 0.00 | 0.00 | 64 | 1017.0 |
| 20260507003227 | 57 | 0 | 2.6 | 0.0 | 0.00 | 0.00 | 0.00 | 63 | 1017.0 |
| 20260507001726 | 57 | 0 | 2.6 | 0.0 | 0.00 | 0.00 | 0.00 | 62 | 1018.0 |
| 20260507000227 | 57 | 360 | 0.9 | 4.3 | 0.00 | 0.00 | 0.00 | 61 | 1017.0 |
| 20260506233226 | 57 | 0 | 2.6 | 0.0 | 0.00 | 0.00 | 0.00 | 61 | 1017.0 |
| 20260506231725 | 57 | 0 | 2.6 | 0.0 | 0.00 | 0.00 | 0.00 | 62 | 1018.0 |
| 20260506230225 | 57 | 360 | 0.9 | 4.3 | 0.00 | 0.00 | 0.00 | 63 | 1017.0 |
| 20260506224725 | 57 | 0 | 2.6 | 0.0 | 0.00 | 0.00 | 0.00 | 65 | 1017.0 |
| 20260506223225 | 58 | 0 | 2.6 | 0.0 | 0.00 | 0.00 | 0.00 | 63 | 1017.0 |
| 20260506221724 | 58 | 0 | 2.6 | 0.0 | 0.00 | 0.00 | 0.00 | 61 | 1018.0 |
| 20260506220224 | 58 | 360 | 0.9 | 3.5 | 0.00 | 0.00 | 0.00 | 60 | 1018.0 |
| 20260506214724 | 58 | 0 | 2.6 | 0.0 | 0.00 | 0.00 | 0.00 | 56 | 1018.0 |
| 20260506213224 | 58 | 0 | 2.6 | 0.0 | 0.00 | 0.00 | 0.00 | 54 | 1018.0 |
| 20260506211723 | 58 | 0 | 2.6 | 0.0 | 0.00 | 0.00 | 0.00 | 53 | 1018.0 |
| 20260506210223 | 59 | 220 | 4.3 | 0.0 | 0.00 | 0.00 | 0.00 | 54 | 1017.0 |
| 20260506204723 | 59 | 220 | 4.3 | 0.0 | 0.00 | 0.00 | 0.00 | 55 | 1017.0 |
| 20260506203223 | 59 | 220 | 4.3 | 0.0 | 0.00 | 0.00 | 0.00 | 54 | 1017.0 |
| 20260506201722 | 59 | 220 | 4.3 | 0.0 | 0.00 | 0.00 | 0.00 | 52 | 1018.0 |
| 20260506200222 | 60 | 230 | 4.3 | 0.0 | 0.00 | 0.00 | 0.00 | 52 | 1017.0 |
| 20260506194722 | 61 | 230 | 4.3 | 0.0 | 0.00 | 0.00 | 0.00 | 52 | 1017.0 |
| 20260506193222 | 61 | 230 | 3.5 | 0.0 | 0.00 | 0.00 | 0.00 | 55 | 1017.0 |
| 20260506191721 | 61 | 230 | 3.5 | 0.0 | 0.00 | 0.00 | 0.00 | 56 | 1017.0 |
| 20260506190221 | 62 | 230 | 4.3 | 0.0 | 0.00 | 0.00 | 0.00 | 56 | 1017.0 |
| 20260506184720 | 62 | 230 | 4.3 | 0.0 | 0.00 | 0.00 | 0.00 | 56 | 1017.0 |
| 20260506183220 | 63 | 230 | 4.3 | 0.0 | 0.00 | 0.00 | 0.00 | 55 | 1017.0 |
| 20260506181720 | 63 | 343 | 0.9 | 0.9 | 0.00 | 0.00 | 0.00 | 51 | 1017.0 |
| 20260506180219 | 64 | 230 | 4.3 | 0.0 | 0.00 | 0.00 | 0.00 | 52 | 1016.0 |
| 20260506174719 | 65 | 230 | 4.3 | 0.0 | 0.00 | 0.00 | 0.00 | 51 | 1016.0 |
| 20260506173218 | 66 | 230 | 4.3 | 0.0 | 0.00 | 0.00 | 0.00 | 50 | 1016.0 |
| 20260506171718 | 68 | 230 | 4.3 | 0.0 | 0.00 | 0.00 | 0.00 | 47 | 1016.0 |
| 20260506170218 | 69 | 0 | 2.6 | 0.0 | 0.00 | 0.00 | 0.00 | 45 | 1016.0 |
| 20260506164718 | 71 | 0 | 2.6 | 0.0 | 0.00 | 0.00 | 0.00 | 37 | 1016.0 |
| 20260506163217 | 71 | 0 | 2.6 | 0.0 | 0.00 | 0.00 | 0.00 | 40 | 1016.0 |
| 20260506161717 | 71 | 0 | 2.6 | 0.0 | 0.00 | 0.00 | 0.00 | 40 | 1016.0 |
| 20260506160217 | 72 | 0 | 2.6 | 0.0 | 0.00 | 0.00 | 0.00 | 35 | 1016.0 |
| 20260506154716 | 72 | 0 | 2.6 | 0.0 | 0.00 | 0.00 | 0.00 | 35 | 1016.0 |
| 20260506153216 | 70 | 260 | 0.9 | 1.7 | 0.00 | 0.00 | 0.00 | 45 | 1016.0 |
| 20260506151715 | 72 | 0 | 2.6 | 0.0 | 0.00 | 0.00 | 0.00 | 39 | 1016.0 |
| 20260506150215 | 72 | 340 | 4.3 | 0.0 | 0.00 | 0.00 | 0.00 | 39 | 1016.0 |
| 20260506144715 | 72 | 340 | 4.3 | 0.0 | 0.00 | 0.00 | 0.00 | 46 | 1016.0 |
| 20260506143214 | 74 | 0 | 2.6 | 0.0 | 0.00 | 0.00 | 0.00 | 43 | 1016.0 |
| 20260506141714 | 74 | 0 | 2.6 | 0.0 | 0.00 | 0.00 | 0.00 | 43 | 1016.0 |
| 20260506140214 | 76 | 0 | 2.6 | 0.0 | 0.00 | 0.00 | 0.00 | 36 | 1016.0 |
| 20260506134714 | 76 | 0 | 2.6 | 0.0 | 0.00 | 0.00 | 0.00 | 36 | 1016.0 |
| 20260506133213 | 76 | 0 | 2.6 | 0.0 | 0.00 | 0.00 | 0.00 | 36 | 1016.0 |
| 20260506131713 | 76 | 0 | 2.6 | 0.0 | 0.00 | 0.00 | 0.00 | 36 | 1016.0 |
| 20260506130213 | 74 | 0 | 2.6 | 0.0 | 0.00 | 0.00 | 0.00 | 38 | 1016.0 |
| 20260506124712 | 72 | 0 | 2.6 | 0.0 | 0.00 | 0.00 | 0.00 | 40 | 1016.0 |
| 20260506123212 | 71 | 110 | 3.5 | 0.0 | 0.00 | 0.00 | 0.00 | 45 | 1016.0 |
| 20260506121712 | 70 | 110 | 3.5 | 0.0 | 0.00 | 0.00 | 0.00 | 45 | 1017.0 |
| 20260506120212 | 69 | 120 | 4.3 | 0.0 | 0.00 | 0.00 | 0.00 | 50 | 1017.0 |
| 20260506114711 | 68 | 120 | 4.3 | 0.0 | 0.00 | 0.00 | 0.00 | 53 | 1016.0 |
| 20260506113211 | 71 | 130 | 7.8 | 0.0 | 0.00 | 0.00 | 0.00 | 47 | 1017.0 |
| 20260506111711 | 70 | 148 | 2.6 | 2.6 | 0.00 | 0.00 | 0.00 | 45 | 1017.0 |
| 20260506110210 | 68 | 120 | 7.8 | 0.0 | 0.00 | 0.00 | 0.00 | 45 | 1017.0 |
| 20260506104710 | 67 | 120 | 7.8 | 0.0 | 0.00 | 0.00 | 0.00 | 42 | 1017.0 |
| 20260506103209 | 67 | 130 | 8.7 | 0.0 | 0.00 | 0.00 | 0.00 | 42 | 1017.0 |
| 20260506101709 | 67 | 130 | 8.7 | 0.0 | 0.00 | 0.00 | 0.00 | 42 | 1018.0 |
| 20260506100209 | 68 | 135 | 2.6 | 2.6 | 0.00 | 0.00 | 0.00 | 50 | 1017.0 |
| 20260506094708 | 68 | 135 | 2.6 | 2.6 | 0.00 | 0.00 | 0.00 | 49 | 1017.0 |
| 20260506093207 | 65 | 120 | 7.8 | 0.0 | 0.00 | 0.00 | 0.00 | 53 | 1017.0 |
| 20260506091707 | 64 | 120 | 7.8 | 0.0 | 0.00 | 0.00 | 0.00 | 53 | 1018.0 |
| 20260506090206 | 66 | 122 | 3.5 | 2.6 | 0.00 | 0.00 | 0.00 | 51 | 1017.0 |
| 20260506084705 | 64 | 100 | 4.3 | 0.0 | 0.00 | 0.00 | 0.00 | 50 | 1017.0 |
| 20260506083205 | 64 | 0 | 2.6 | 0.0 | 0.00 | 0.00 | 0.00 | 51 | 1017.0 |
| 20260506081705 | 63 | 0 | 2.6 | 0.0 | 0.00 | 0.00 | 0.00 | 52 | 1018.0 |
| 20260506080205 | 63 | 0 | 2.6 | 0.0 | 0.00 | 0.00 | 0.00 | 54 | 1017.0 |
| 20260506073204 | 64 | 0 | 2.6 | 0.0 | 0.00 | 0.00 | 0.00 | 58 | 1017.0 |
| 20260506071704 | 61 | 112 | 3.5 | 3.5 | 0.00 | 0.00 | 0.00 | 61 | 1017.0 |
| 20260506070203 | 61 | 112 | 3.5 | 3.5 | 0.00 | 0.00 | 0.00 | 61 | 1017.0 |
| 20260506061701 | 61 | 0 | 1.7 | 0.0 | 0.00 | 0.00 | 0.00 | 61 | 1018.0 |
| 20260506060201 | 61 | 340 | 3.5 | 0.0 | 0.00 | 0.00 | 0.00 | 61 | 1017.0 |
| 20260506050200 | 57 | 0 | 2.6 | 0.0 | 0.00 | 0.00 | 0.00 | 76 | 1017.0 |
| 20260506044700 | 55 | 0 | 2.6 | 0.0 | 0.00 | 0.00 | 0.00 | 79 | 1017.0 |
| 20260506043200 | 54 | 0 | 2.6 | 0.0 | 0.00 | 0.00 | 0.00 | 80 | 1017.0 |
| 20260506041659 | 53 | 0 | 2.6 | 0.0 | 0.00 | 0.00 | 0.00 | 81 | 1017.0 |
| 20260506040159 | 52 | 0 | 2.6 | 0.0 | 0.00 | 0.00 | 0.00 | 81 | 1017.0 |
| 20260506034659 | 52 | 0 | 2.6 | 0.0 | 0.00 | 0.00 | 0.00 | 81 | 1017.0 |
| 20260506033159 | 52 | 0 | 2.6 | 0.0 | 0.00 | 0.00 | 0.00 | 80 | 1017.0 |
| 20260506031658 | 52 | 0 | 2.6 | 0.0 | 0.00 | 0.00 | 0.00 | 80 | 1017.0 |
| 20260506030158 | 52 | 360 | 1.7 | 4.3 | 0.00 | 0.00 | 0.00 | 79 | 1017.0 |
| 20260506024658 | 52 | 0 | 2.6 | 0.0 | 0.00 | 0.00 | 0.00 | 79 | 1017.0 |
| 20260506023158 | 52 | 0 | 2.6 | 0.0 | 0.00 | 0.00 | 0.00 | 79 | 1017.0 |
| 20260506021657 | 52 | 0 | 2.6 | 0.0 | 0.00 | 0.00 | 0.00 | 79 | 1017.0 |
| 20260506020157 | 52 | 360 | 1.7 | 4.3 | 0.00 | 0.00 | 0.00 | 78 | 1016.0 |
| 20260506014657 | 52 | 0 | 2.6 | 0.0 | 0.00 | 0.00 | 0.00 | 78 | 1016.0 |
| 20260506013157 | 52 | 0 | 2.6 | 0.0 | 0.00 | 0.00 | 0.00 | 77 | 1017.0 |
| 20260506011657 | 55 | 0 | 2.6 | 0.0 | 0.00 | 0.00 | 0.00 | 75 | 1017.0 |